Theta_e
315 313 312 311 311 312 313 314 314 314 315 316 315 315 316 316 315 313 315 314 314 315 315 318 345 349 349 349 347 346 350 348 347 346 344 347 347 348 347 347 347 347 340 334
314 312 311 312 312 313 314 314 314 313 315 314 316 315 315 315 316 316 314 314 314 315 317 316 346 348 349 350 350 348 351 350 350 348 347 346 345 348 349 347 345 345 340 331
314 315 315 314 314 314 313 314 314 314 316 315 314 314 315 314 316 316 315 315 315 315 315 317 344 349 349 350 351 350 350 352 351 349 347 346 346 347 349 344 342 338 334 326
314 315 316 316 315 317 316 315 316 316 316 314 314 316 313 314 314 315 314 313 313 314 314 316 339 350 349 348 349 351 351 351 351 350 348 346 345 341 341 340 336 333 330 326
317 317 317 317 317 317 317 317 317 317 315 314 315 313 312 313 315 314 314 315 315 313 313 313 337 349 349 348 347 349 350 351 351 350 349 348 349 338 336 335 334 332 328 327
316 316 317 317 317 317 318 316 316 315 312 316 313 314 313 314 316 315 316 317 320 320 322 320 333 347 350 349 348 348 351 351 351 350 348 348 348 338 334 334 332 330 328 327
316 317 317 315 313 312 314 318 320 318 316 316 313 314 313 323 328 323 320 318 317 315 324 329 331 344 348 349 348 348 350 350 350 349 347 346 347 338 335 333 331 329 328 327
318 318 316 312 311 311 314 322 324 324 319 318 315 315 316 328 326 325 323 319 318 315 315 325 331 333 342 344 345 346 348 349 348 348 347 346 347 337 333 332 331 330 328 327
313 318 313 311 312 311 311 312 311 321 321 320 318 319 325 326 326 324 321 320 319 316 315 320 325 330 334 336 340 346 346 345 346 345 343 344 343 338 333 331 330 330 330 328
309 310 310 310 312 311 310 309 317 325 327 326 321 321 327 327 325 324 320 319 318 317 316 318 321 327 329 333 333 336 339 339 339 342 343 340 339 338 335 332 331 332 333 331
308 308 309 309 310 309 310 309 308 315 327 330 328 321 328 325 323 322 320 319 318 318 317 316 316 319 328 330 332 333 333 332 330 335 335 335 335 330 336 336 335 335 333 332
308 306 308 308 307 308 308 309 308 310 312 321 326 322 326 324 322 321 320 317 317 317 318 317 316 315 317 328 329 332 332 334 334 332 333 330 329 329 329 335 337 336 333 332
305 303 303 303 305 306 308 308 308 307 308 312 317 315 326 325 323 322 319 316 316 316 316 316 316 314 314 325 327 328 329 329 333 334 332 334 331 332 330 337 338 335 334 333
306 303 303 302 304 306 309 308 308 307 307 307 308 308 307 315 323 321 320 318 315 314 317 315 315 317 313 317 323 324 326 329 328 332 335 329 332 336 339 339 337 334 337 337
303 305 307 309 310 310 309 308 308 308 308 308 307 306 306 304 307 317 318 315 318 316 315 314 314 316 312 312 315 317 320 328 327 331 331 329 328 333 335 332 325 333 338 336
306 307 308 309 309 309 308 307 306 306 308 307 306 306 309 308 310 310 309 314 319 317 316 312 314 315 311 312 312 312 316 325 328 329 331 329 329 331 329 331 332 334 335 336
307 306 307 309 308 307 307 306 307 307 309 310 312 311 310 310 310 310 310 310 313 314 314 311 311 310 311 311 312 312 312 321 327 326 327 330 330 330 331 329 323 334 336 336
304 304 304 306 305 307 305 309 311 310 312 311 311 310 309 308 308 310 310 310 310 310 309 308 308 309 310 311 312 313 312 319 324 327 325 324 327 329 328 327 329 325 336 334
303 303 305 304 306 305 306 311 309 310 310 309 309 309 308 308 308 308 309 309 309 308 308 309 310 310 310 310 311 313 318 321 322 326 325 323 322 325 329 328 325 323 331 334
304 304 305 304 303 303 307 311 309 308 309 310 309 309 308 308 308 306 307 307 308 308 308 309 309 310 310 309 310 311 312 318 321 322 324 323 321 322 323 326 328 331 332 333
307 309 307 304 310 309 311 310 309 311 308 308 308 307 306 307 306 305 305 305 305 307 308 309 309 309 308 309 309 309 310 311 317 320 322 321 320 321 321 322 323 327 331 332
308 305 305 303 302 310 309 309 309 305 306 305 305 304 305 304 304 304 304 304 305 305 306 308 308 308 309 309 309 308 308 309 317 319 320 319 318 318 320 321 323 325 330 333
305 308 307 307 305 306 307 305 304 303 304 304 304 305 305 304 304 304 304 304 304 305 306 306 307 308 309 308 309 309 308 310 317 317 318 318 318 316 317 318 318 320 325 326
305 305 307 308 307 306 304 304 303 303 303 304 304 304 305 305 304 304 303 304 305 305 306 307 307 306 307 308 308 308 308 310 316 317 316 317 316 315 315 313 313 314 315 318
302 304 304 305 305 305 304 303 303 302 303 303 304 304 303 304 304 304 304 304 305 305 306 306 307 307 307 307 308 309 309 312 315 315 315 315 315 314 313 309 310 310 309 311
303 305 305 305 304 304 303 303 301 303 303 304 304 304 303 303 304 303 304 305 306 305 304 305 307 307 307 309 308 308 308 312 314 314 315 314 312 311 312 311 312 312 309 311
Wind_Speed
3 2 7 10 9 9 7 6 7 9 14 4 8 7 11 11 6 10 12 11 10 9 11 17 29 36 36 41 47 49 41 48 45 43 39 34 34 31 33 34 31 28 25 21
3 6 12 8 9 8 9 9 12 10 12 7 8 8 9 6 7 7 9 9 10 6 6 6 20 28 39 43 47 47 45 48 47 40 38 39 37 31 31 35 32 28 24 24
8 10 11 12 12 11 13 13 13 15 16 6 5 8 4 8 4 7 8 7 6 9 9 7 11 28 34 41 42 45 47 47 43 39 38 34 30 29 35 34 31 27 24 27
6 9 11 12 10 13 13 11 16 10 4 6 4 13 5 6 10 6 9 9 11 11 7 7 11 20 31 40 44 49 48 50 49 48 42 43 32 29 33 39 34 29 26 26
7 4 7 7 6 5 9 11 15 13 7 5 3 1 7 4 8 11 10 9 10 10 10 11 12 28 36 38 41 46 49 46 39 43 43 42 32 34 36 39 35 32 28 24
5 3 3 5 7 4 6 5 3 1 2 9 6 6 2 2 5 8 11 17 21 21 17 14 13 28 35 36 34 35 35 36 41 46 40 41 35 36 38 42 39 33 29 28
3 3 1 6 6 8 9 6 4 4 2 6 8 3 6 6 10 10 14 16 17 20 22 20 18 6 25 29 27 24 19 12 11 15 12 14 15 35 48 50 45 37 34 32
2 1 5 9 5 3 4 2 3 5 2 4 5 5 4 4 6 11 15 10 17 22 20 23 23 20 18 12 15 18 20 17 13 13 9 8 15 26 29 44 49 45 40 40
3 2 4 16 7 6 7 5 7 4 3 1 4 2 2 7 10 12 14 16 15 17 19 19 20 27 28 19 8 14 17 16 20 18 16 12 13 25 24 28 40 43 38 39
2 3 6 6 6 12 7 8 5 4 5 4 4 3 1 7 8 8 13 10 9 14 19 20 18 24 28 33 26 12 4 10 12 16 19 16 11 16 15 20 34 39 35 32
2 3 5 5 6 6 2 3 3 2 5 2 3 4 2 2 1 3 5 5 6 11 12 14 18 26 25 32 34 33 19 16 17 20 23 21 21 22 28 28 33 33 28 31
2 3 0 2 5 7 2 4 4 3 5 3 4 6 4 5 6 4 4 3 2 7 5 9 16 24 27 22 26 26 21 22 15 19 28 26 27 29 30 44 46 34 30 29
2 2 3 6 6 5 3 7 5 4 1 3 2 4 5 3 4 5 4 5 5 2 7 7 9 17 25 19 19 16 24 24 21 22 16 29 28 28 30 33 36 30 36 33
6 3 5 4 4 3 7 8 8 2 1 2 4 6 11 5 7 7 8 8 8 4 3 5 5 6 15 21 21 17 18 22 25 24 26 23 29 30 26 33 34 40 33 33
4 1 0 2 5 5 8 11 8 9 6 4 6 4 7 13 8 8 12 6 7 7 5 5 5 5 8 12 6 10 19 15 20 25 26 9 22 26 34 32 26 24 33 38
2 1 4 4 5 6 9 11 9 7 6 7 7 3 9 7 13 15 14 9 7 9 8 8 7 6 5 8 9 13 22 16 16 18 20 13 10 17 12 20 16 24 32 32
5 4 3 5 4 6 6 4 3 5 5 2 3 3 7 11 15 11 14 14 8 9 6 5 7 6 5 3 6 11 11 15 9 12 14 14 6 6 22 23 15 27 39 34
6 5 4 4 4 2 4 6 4 5 6 4 1 4 5 5 11 4 12 13 14 16 3 3 2 1 2 7 11 11 9 12 9 8 11 13 9 5 20 27 33 22 21 27
8 5 1 2 3 5 1 5 3 2 2 4 4 7 8 9 5 7 11 14 8 8 11 4 3 5 8 3 6 11 8 6 10 7 9 12 13 9 9 20 25 21 19 27
5 3 4 2 3 4 2 3 7 3 5 4 5 6 6 6 7 6 11 14 16 19 16 17 21 12 10 9 4 5 8 7 4 4 4 11 15 16 11 11 11 29 29 24
2 3 3 3 3 6 1 7 5 3 5 7 5 5 5 5 4 11 16 16 18 22 24 24 20 13 15 12 7 4 3 6 7 2 5 9 13 16 16 16 14 14 21 26
4 3 3 2 2 6 3 3 1 3 4 6 8 6 12 16 17 15 16 15 17 20 26 25 18 21 18 12 12 9 11 10 4 2 3 9 11 14 16 15 14 11 9 16
1 3 3 6 5 3 3 6 3 3 9 10 10 12 13 15 15 17 15 16 17 24 22 27 22 23 19 14 11 9 13 15 9 4 3 1 7 10 11 11 11 9 5 12
5 1 1 3 2 0 4 3 4 4 8 11 12 15 14 16 16 16 15 14 14 22 22 23 22 17 20 16 15 15 15 17 12 9 6 8 5 4 10 6 5 4 4 4
5 3 2 4 5 6 2 5 8 8 9 12 13 12 14 15 16 15 15 15 17 21 21 22 21 19 19 18 17 20 18 13 11 8 9 13 10 6 1 5 9 8 5 3
4 6 4 5 5 4 7 11 8 10 14 16 15 15 13 16 15 15 15 21 19 18 19 18 19 15 22 16 15 17 19 15 14 9 13 18 16 13 9 6 9 10 11 6
Wind_Direction
237 157 230 237 221 223 236 236 249 266 274 213 252 257 267 276 299 265 252 241 245 245 253 262 194 176 172 172 175 179 179 186 186 182 183 179 174 184 190 190 192 191 188 189
4 231 230 228 237 239 245 254 272 281 262 185 267 263 265 280 264 257 254 243 230 228 260 268 185 177 169 173 179 179 180 180 181 180 176 175 172 173 184 187 188 191 197 193
194 243 228 229 252 249 250 241 252 246 268 282 283 286 310 304 293 291 279 257 258 244 248 262 176 188 181 175 178 179 183 185 184 181 180 173 173 171 178 183 188 193 198 189
216 257 244 250 239 246 251 239 239 238 200 250 219 276 300 270 296 293 298 302 285 282 236 225 180 183 196 187 183 183 186 188 191 190 177 176 172 170 181 184 187 186 192 188
240 261 290 292 238 249 245 266 261 254 225 180 288 13 265 2 322 300 290 291 288 278 257 240 192 182 195 194 190 190 192 192 186 184 184 182 178 180 180 182 183 184 184 191
217 254 215 254 307 8 314 298 276 13 154 253 208 175 256 251 283 316 337 10 11 6 355 354 230 192 188 194 197 194 193 194 187 187 187 187 184 177 170 178 179 181 185 189
341 278 303 15 7 359 21 40 334 315 301 234 215 190 223 73 33 40 58 33 21 13 12 22 18 252 187 192 191 188 185 171 172 181 182 191 202 184 179 178 179 179 188 190
121 82 33 12 76 301 318 106 158 282 267 290 294 214 185 76 84 73 50 33 25 24 14 24 26 31 45 75 121 136 150 145 146 155 174 191 210 199 190 182 182 187 192 199
54 248 7 44 19 33 331 45 281 252 270 228 243 83 24 25 29 44 47 35 22 18 18 24 19 30 43 40 58 142 153 128 139 146 128 106 189 199 212 203 189 188 193 206
340 326 19 348 61 30 31 309 346 16 337 292 299 348 93 13 348 32 34 26 27 30 24 22 18 20 27 37 35 27 43 175 171 169 166 161 141 209 221 227 202 196 201 206
80 136 299 31 34 313 6 348 303 148 169 218 329 294 13 172 224 13 43 16 6 41 29 27 13 7 34 41 40 38 22 343 294 258 249 236 223 210 229 253 247 216 215 222
318 132 49 224 263 291 242 37 10 99 292 198 194 260 92 0 347 334 33 349 147 121 64 20 30 7 1 37 34 38 33 24 351 302 279 260 238 235 219 216 220 240 240 233
290 41 11 353 4 21 67 330 319 280 93 254 150 262 151 193 257 235 211 251 264 43 104 91 51 22 7 2 33 24 30 19 7 2 281 248 241 228 227 214 213 219 229 232
71 77 136 178 208 286 303 329 345 14 257 229 243 281 310 265 255 262 275 270 288 339 104 115 117 118 64 14 351 20 9 13 6 359 354 222 217 211 212 218 223 216 228 229
87 73 57 262 284 295 307 318 310 311 271 252 274 285 313 307 299 259 250 261 246 244 204 236 215 203 165 122 80 0 18 17 15 0 23 203 196 204 219 243 254 233 229 231
3 254 38 289 282 289 295 289 278 281 290 320 298 304 359 323 357 359 343 270 227 241 233 204 222 205 155 85 44 25 31 15 25 23 18 66 203 218 226 227 242 242 226 232
144 155 118 259 285 327 313 297 289 254 59 297 59 281 343 356 351 1 343 14 317 278 254 238 221 188 206 92 45 32 22 22 20 35 28 28 34 249 230 214 229 222 207 207
156 139 144 269 31 263 227 32 22 318 88 75 188 346 15 347 323 293 13 359 355 355 301 288 336 276 114 44 39 18 9 25 37 18 30 27 19 344 255 252 241 228 200 219
180 135 190 154 193 280 295 28 355 331 308 12 357 341 339 346 319 289 6 351 332 326 328 298 321 312 312 344 27 36 30 32 12 31 5 358 356 348 327 261 261 244 247 222
100 88 141 133 129 249 196 294 287 282 250 20 345 311 325 353 325 283 341 334 320 321 315 329 308 246 251 285 315 24 24 8 6 355 357 343 346 341 328 301 288 249 243 231
36 79 185 221 225 269 333 296 303 206 255 333 347 326 319 293 242 296 309 306 304 301 305 307 309 319 283 277 276 325 323 340 318 280 326 344 340 334 326 325 296 293 244 230
172 158 215 83 77 276 328 22 172 267 324 328 305 307 297 295 292 289 290 293 300 296 297 299 300 301 298 305 290 307 320 318 279 162 353 332 342 340 334 333 326 311 255 227
12 161 209 175 224 189 185 208 72 354 304 303 298 299 292 291 291 291 287 289 288 289 287 290 289 287 291 288 293 311 318 305 261 213 208 337 350 340 335 349 347 343 310 238
322 328 200 9 303 118 266 173 201 240 284 289 281 288 287 287 288 292 287 281 280 278 279 282 281 274 273 288 298 290 294 306 238 194 191 157 141 338 327 7 30 25 12 283
213 323 218 267 274 332 218 315 310 298 277 278 279 277 290 290 287 291 287 281 274 268 271 282 286 282 272 279 282 282 283 284 238 232 188 164 151 148 87 22 49 53 60 259
194 193 166 229 209 199 257 269 258 276 285 284 279 281 290 296 289 291 286 281 273 270 261 267 265 275 278 270 265 274 282 245 222 210 194 174 169 158 164 150 98 84 70 90